Weather in Zhangye

China     38°55′59″N   100°27′17″E
temp.,
°C
wind,
m/s
gust,
m/s
humid.,
%
clouds,
%
prec.,
mm/h
press.,
hPa
HPBL,
m
22 may, sun
sun2223:00+22se22150 0.0 100021
02:00+19sse121922 0.0 100017
05:00+17sse222934 0.0 100113
08:00+20s342898 0.1 1002203
11:00+25sse121976 0.0 10001155
14:00+30ne22104 0.0 9973841
17:00+30se431089 0.0 9954206
20:00+28nw111398 0.0 997249
23 may, mon
mon2323:00+22se242558 0.0 100093
02:00+19e35325 0.0 100265
05:00+17s33360 0.0 100226
08:00+21se12280 0.0 1003199
11:00+27e141862 0.0 10021700
14:00+31e661132 0.0 9993510
17:00+31ese8711100 0.0 9973542
20:00+28ese81113100 0.0 998479
24 may, tue
tue2423:00+25ese51016100 0.0 1001238
02:00+24ese7122081 0.0 1000271
05:00+22se4723100 0.0 1001148
08:00+24se4622100 0.0 1001399
11:00+30ese761486 0.0 10002149
14:00+33e761071 0.0 9973094
17:00+33e1071099 0.0 9963434
20:00+29e8121321 0.0 999608
25 may, wed
wed2523:00+25ese461794 0.0 1002144
02:00+22e2318100 0.0 100361
05:00+20s2323100 0.0 1006103
08:00+21ne1223100 0.0 1008398
11:00+23nw3321100 0.0 1009995
14:00+24nw6423100 0.0 10091602
17:00+25sse3421100 0.0 10082539
20:00+21se91035100 0.0 1011925
26 may, thu
thu2623:00+20sse5737100 0.0 1012558
02:00+18sse364180 0.0 1012222
05:00+18sse223899 0.0 101146
08:00+19se452895 0.0 1012753
11:00+23ese2428100 0.0 10111796
14:00+26ssw1220100 0.0 10072967
17:00+28nne3218100 0.0 10043342
20:00+25ese3518100 0.0 1005646